#timestamp,LO_Frequency,Hit,StdDev 
1507507215.7,286047001.1,N
1507507235.5,286047000.8,N
1507507255.3,286046998.5,Y
1507507275.2,286046999.5,P
1507507295.0,286046999.6,N
1507507295.9,286046999.6,N
1507507315.8,286046998.6,N
1507507335.6,286046999.1,N
1507507355.4,286046997.2,Y
1507507375.3,286046996.5,P
1507507395.1,286046997.0,N
1507507415.9,286046996.7,N
1507507435.7,286046999.4,N
1507507455.5,286047001.0,N
1507507475.4,286047001.2,N
1507507495.2,286046998.4,N
1507507515.1,286046999.4,N
1507507516.0,286046999.4,N
1507507535.8,286047000.8,N
1507507555.6,286046998.4,N
1507507575.5,286046998.7,N
1507507595.3,286046998.6,N
1507507615.1,286046998.1,N
1507507635.9,286047000.9,N
1507507655.7,286046998.1,N
1507507675.6,286047000.6,N
1507507695.4,286047001.0,N
1507507715.2,286046998.9,N
1507507735.1,286046996.9,N
1507507736.0,286046996.9,N
1507507755.8,286047000.8,N
1507507775.7,286046998.4,N
1507507795.5,286046998.3,N
1507507815.3,286047001.1,N
1507507835.2,286046998.2,N
1507507855.9,286046998.5,N
1507507875.7,286046998.1,N
1507507895.6,286047000.5,N
1507507915.4,286046998.5,N
1507507935.3,286047001.1,N
1507507955.1,286046998.1,N
1507507956.0,286046998.1,N
1507507975.8,286046999.3,N
1507507995.7,286046997.3,N
1507508015.5,286046998.4,N
1507508035.4,286046998.4,N
1507508055.2,286047001.1,N
1507508075.0,286046998.4,N
1507508075.9,286046998.4,N
1507508095.8,286046998.5,N
1507508115.6,286047000.5,N
1507508135.5,286047000.7,N
1507508155.3,286047000.0,N
1507508175.1,286047001.0,N
1507508195.9,286047001.0,N
1507508215.7,286046998.1,N
1507508235.5,286047001.1,N
1507508255.4,286047000.6,N
1507508275.2,286046998.1,N
1507508295.1,286047001.1,N
1507508296.0,286047011.9,Y
1507508315.8,286047001.1,P
1507508335.6,286047000.5,N
1507508355.5,286047000.5,N
1507508375.3,286047000.6,N
1507508395.2,286047000.4,N
1507508415.9,286047002.3,Y
1507508435.7,286047002.1,P
1507508455.6,286047002.3,N
1507508475.4,286047004.0,P
1507508495.3,286047005.4,Y
1507508515.1,286047001.9,P
1507508535.8,286047000.0,N
1507508555.7,286047002.7,N
1507508575.5,286047002.8,N
1507508595.3,286047002.0,N
1507508615.2,286047002.5,N
1507508635.0,286046999.9,N
1507508635.9,286046999.9,N
1507508655.8,286047000.4,N
1507508675.6,286047002.6,N
1507508695.4,286047001.5,N
1507508715.3,286047002.7,N
1507508735.1,286047000.5,N
1507508755.8,286047000.4,N
1507508775.7,286047000.8,N
1507508795.5,286047000.3,N
1507508815.4,286047000.9,N
1507508835.2,286046999.9,N
1507508855.0,286046998.6,N
1507508855.9,286046998.6,N
1507508875.8,286046998.4,N
1507508895.6,286046997.0,N
1507508915.5,286046996.9,N
1507508935.3,286046998.4,N
1507508955.1,286046998.7,N
1507508975.9,286046999.5,N
1507508995.7,286046998.8,N
1507509015.5,286047000.5,N
1507509035.4,286047000.0,N
1507509055.2,286046999.9,N
1507509075.1,286047000.1,N
1507509076.0,286047000.1,N
1507509095.8,286047001.6,N
1507509115.6,286047001.8,N
1507509135.5,286047001.9,N
1507509155.3,286047002.2,N
1507509175.1,286047001.9,N
1507509195.9,286047004.1,N
1507509215.7,286047001.9,N
1507509235.6,286047004.1,N
1507509255.4,286047004.4,N
1507509275.2,286047002.0,N
1507509295.1,286047001.6,N
1507509296.0,286047001.6,N
1507509315.8,286047002.2,N
1507509335.6,286047000.6,N
1507509355.5,286046999.0,N
1507509375.3,286046998.6,N
1507509395.2,286046998.9,N
1507509415.9,286046998.8,N
1507509435.7,286046998.7,N
1507509455.6,286046998.7,N
1507509475.4,286046998.6,N
1507509495.2,286046998.4,N
1507509515.1,286047000.3,N
1507509516.0,286047000.3,N
1507509535.8,286047002.2,N
1507509555.7,286046999.8,N
1507509575.5,286047000.8,N
1507509595.3,286047000.6,N
1507509615.2,286047000.8,N
1507509635.0,286046998.6,N
1507509635.9,286046998.6,N
1507509655.8,286046998.6,N
1507509675.6,286046998.9,N
1507509695.4,286046998.3,N
1507509715.3,286047000.4,N
1507509735.1,286046999.9,N
1507509755.8,286047001.0,N
1507509775.7,286046998.5,N
1507509795.5,286046998.4,N
1507509815.4,286046999.2,N
1507509835.2,286046999.4,N
1507509855.0,286046998.9,N
1507509855.9,286046998.9,N
1507509875.8,286046998.5,N
1507509895.6,286046998.6,N
1507509915.4,286046998.2,N
1507509935.3,286046998.1,N
1507509955.1,286046999.9,N
1507509975.9,286046999.9,N
1507509995.7,286047000.2,N
1507510015.5,286046999.7,N
1507510035.4,286047004.4,Y
1507510055.2,286047004.3,P
1507510075.1,286047004.0,N
1507510076.0,286047004.0,N
1507510095.8,286047002.5,N
1507510115.6,286047001.6,N
1507510135.5,286047002.1,N
1507510155.3,286047002.4,N
1507510175.2,286047001.9,N
1507510195.9,286047000.3,N
1507510215.7,286047002.5,N
1507510235.6,286047001.9,N
1507510255.4,286047002.5,N
1507510275.2,286047001.5,N
1507510295.1,286047003.6,N
1507510296.0,286047003.6,N
1507510315.8,286047005.3,Y
1507510335.7,286047004.0,P
1507510355.5,286047004.2,P
1507510375.3,286047001.3,N
1507510395.2,286047001.5,N
1507510415.0,286047002.2,N
1507510415.9,286047002.2,N
1507510435.7,286047002.6,N
1507510455.6,286047001.7,N
1507510475.4,286047001.8,N
1507510495.3,286047002.5,N
1507510515.1,286047002.6,N
1507510516.0,286047002.6,N
1507510535.8,286047004.4,Y
1507510555.7,286047000.4,P
1507510575.5,286047000.8,N
1507510595.3,286047000.5,N
1507510615.2,286047000.3,N
1507510635.0,286046998.2,N
1507510635.9,286046998.2,N
1507510655.8,286046999.1,N
1507510675.6,286046999.5,N
1507510695.4,286046997.8,N
1507510715.3,286046999.2,N
1507510735.1,286046996.6,N
1507510755.9,286046998.8,N
1507510775.7,286046998.4,N
1507510795.5,286046998.9,N
